Regional Weather Roundup
Issued by NWS

Home | Current Version | Previous Version | Text Only | Print | Product List | Glossary Off
Versions: 1 2 3 4 5 6 7 8 9 10 11 12 13 14 15 16 17 18 19 20 21 22 23 24 25 26 27 28 29 30 31 32 33 34 35 36 37 38 39 40 41 42 43 44 45 46 47 48 49 50

488
ASUS45 KPSR 281210
RWRAZ

ARIZONA HOURLY REGIONAL WEATHER ROUNDUP
NATIONAL WEATHER SERVICE PHOENIX AZ
500 AM MST THU JUL 28 2016

NOTE: FAIR INDICATES FEW OR NO CLOUDS BELOW 12,000 FEET WITH NO
SIGNIFICANT WEATHER AND/OR OBSTRUCTIONS TO VISIBILITY.

AZZ001>003-036-281300-
NORTHWEST ARIZONA

CITY           SKY/WX    TMP DP  RH WIND       PRES   REMARKS
BULLHEAD CITY  MOCLDY    93  54  26 CALM      29.74R
KINGMAN        MOCLDY    83  52  34 SE6       29.99R
6HR MIN TEMP:  79; 6HR MAX TEMP:  84;

$$

AZZ004>008-015-016-018-281300-
NORTH CENTRAL ARIZONA

CITY           SKY/WX    TMP DP  RH WIND       PRES   REMARKS
GRAND CANYON   HAZE      57  43  59 CALM      30.28R VSB 3/4
6HR MIN TEMP:  54; 6HR MAX TEMP:  64;

WILLIAMS       CLEAR     57  46  67 S9        30.36S
PRESCOTT       CLEAR     70  50  49 SE7       30.15R
6HR MIN TEMP:  68; 6HR MAX TEMP:  73;

FLAGSTAFF      CLEAR     54  45  71 CALM      30.31R
6HR MIN TEMP:  54; 6HR MAX TEMP:  73;

PAYSON         CLEAR     72  54  53 CALM      30.22R
PAGE           PTCLDY    81  32  17 S5        30.03R
6HR MIN TEMP:  79; 6HR MAX TEMP:  90;

$$

AZZ009>014-017-281300-
NORTHEAST ARIZONA

CITY           SKY/WX    TMP DP  RH WIND       PRES   REMARKS
WINSLOW        CLEAR     63  43  48 SE5       30.13R
6HR MIN TEMP:  62; 6HR MAX TEMP:  79;

SAINT JOHNS    CLEAR     63  45  51 CALM      30.21R
6HR MIN TEMP:  60; 6HR MAX TEMP:  76;

WINDOW ROCK    CLEAR     54  42  64 CALM      30.30R
6HR MIN TEMP:  54; 6HR MAX TEMP:  67;

SHOW LOW       CLEAR     66  48  52 S14       30.29R
$$

AZZ023-281300-
GREATER PHOENIX AREA

CITY           SKY/WX    TMP DP  RH WIND       PRES   REMARKS
PHOENIX        PTCLDY    91  61  36 SE17G24   29.86R
6HR MIN TEMP:  91; 6HR MAX TEMP: 102;

BUCKEYE        CLEAR     91  59  33 E13       29.85R
LUKE AFB       PTCLDY    91  62  37 SE10      29.84R
6HR MIN TEMP:  91; 6HR MAX TEMP: 100;

DEER VALLEY    CLEAR     91  57  31 SE16G26   29.87R
6HR MIN TEMP:  90; 6HR MAX TEMP: 100;

SCOTTSDALE     CLEAR     91  57  31 S10G20    29.90R
6HR MIN TEMP:  90; 6HR MAX TEMP:  97;

MESA-GATEWAY   PTCLDY    86  61  42 SE12G20   29.90R
$$

AZZ027-028-281300-
SOUTHWEST MARICOPA COUNTY AND PINAL COUNTY

CITY           SKY/WX    TMP DP  RH WIND       PRES   REMARKS
CASA GRANDE    PTCLDY    84  63  48 S9        29.91F
6HR MIN TEMP:  84; 6HR MAX TEMP:  90;

GILA BEND      FAIR      94  57  28 SE10      29.80R
6HR MIN TEMP:  94; 6HR MAX TEMP: 102;

$$

AZZ503-504-507>509-281300-
SOUTHEAST ARIZONA

CITY           SKY/WX    TMP DP  RH WIND       PRES   REMARKS
TUCSON         CLOUDY    77  64  64 NE21G28   30.00F
6HR MIN TEMP:  74; 6HR MAX TEMP:  82; 6HR PCP:  0.41;

DAVIS-MONTHAN  MOCLDY    76  65  69 E13       29.97F
6HR MIN TEMP:  73; 6HR MAX TEMP:  79; 6HR PCP:  0.62;

NOGALES        PTCLDY    70  64  81 N7        30.06F
6HR MIN TEMP:  69; 6HR MAX TEMP:  72;

SIERRA VISTA   PTCLDY    68  64  86 N1        30.15R
6HR MIN TEMP:  68; 6HR MAX TEMP:  75;

DOUGLAS        PTCLDY    67  64  90 NE7       30.09R
6HR MIN TEMP:  67; 6HR MAX TEMP:  71;

SAFFORD        CLEAR     73  61  65 E7        30.03R
6HR MIN TEMP:  73; 6HR MAX TEMP:  82; 6HR PCP: TRACE;

$$

AZZ020-021-025-026-031-281300-
SOUTHWEST ARIZONA

CITY           SKY/WX    TMP DP  RH WIND       PRES   REMARKS
YUMA           CLEAR     90  62  39 S9        29.73S
6HR MIN TEMP:  90; 6HR MAX TEMP:  96;

$$

CAZ031-033-041-043-047-048-061-281300-
SOUTHERN CALIFORNIA

CITY           SKY/WX    TMP DP  RH WIND       PRES   REMARKS
DOWNTOWN L.A.  CLEAR     69  63  81 CALM      29.88S
6HR MIN TEMP:  69; 6HR MAX TEMP:  71;

L.A. AIRPORT   PTCLDY    69  64  84 SW5       29.89R
6HR MIN TEMP:  69; 6HR MAX TEMP:  71;

SAN DIEGO      MOCLDY    69  67  93 CALM      29.91R
6HR MIN TEMP:  68; 6HR MAX TEMP:  71;

BURBANK        CLEAR     71  62  73 E7        29.89S
6HR MIN TEMP:  71; 6HR MAX TEMP:  75;

ONTARIO        PTCLDY    72  52  49 CALM      29.90F
6HR MIN TEMP:  72; 6HR MAX TEMP:  80;

RIVERSIDE      CLEAR     73  48  41 CALM      29.91S
6HR MIN TEMP:  73; 6HR MAX TEMP:  81;

PALM SPRINGS   CLEAR     91  52  26 SE7       29.75R
6HR MIN TEMP:  90; 6HR MAX TEMP: 100;

EL CENTRO NAS  CLEAR     87  61  41 SE3       29.73R
6HR MIN TEMP:  87; 6HR MAX TEMP:  97;

IMPERIAL       CLEAR     89  56  32 SE5       29.71R
6HR MIN TEMP:  87; 6HR MAX TEMP:  96;

BLYTHE         CLEAR     92  61  35 S12       29.73R
6HR MIN TEMP:  92; 6HR MAX TEMP: 105;

NEEDLES        PTCLDY    96  55  25 SE7       29.75R
6HR MIN TEMP:  96; 6HR MAX TEMP: 106;

$$

NVZ020-UTZ003-281300-
SOUTHERN NEVADA-UTAH

CITY           SKY/WX    TMP DP  RH WIND       PRES   REMARKS
LAS VEGAS      PTCLDY    92  44  19 SW3       29.79S
6HR MIN TEMP:  92; 6HR MAX TEMP: 102;

SALT LAKE CITY PTCLDY    74  40  29 E7        30.05R
6HR MIN TEMP:  74; 6HR MAX TEMP:  83;

$$

NMZ009-TXZ055-281300-
NEW MEXICO-WEST TEXAS

CITY           SKY/WX    TMP DP  RH WIND       PRES   REMARKS
ALBUQUERQUE    PTCLDY    71  52  50 N7        30.24R
6HR MIN TEMP:  71; 6HR MAX TEMP:  79;

EL PASO        PTCLDY    75  61  61 N6        30.07S
6HR MIN TEMP:  75; 6HR MAX TEMP:  81;

$$


........................KEY........................
SKY/WX - SKY CONDITION/WEATHER
TMP    - TEMPERATURE IN FAHRENHEIT
DP     - DEW POINT IN FAHRENHEIT
RH     - RELATIVE HUMIDITY IN PERCENT
WIND   - DIRECTION AND SPEED IN MILES PER HOUR (MPH)
VRB    - VARIABLE WIND DIRECTION
PRES   - MEAN SEA LEVEL PRESSURE IN INCHES OF MERCURY
         F - FALLING PRESSURE   R - RISING PRESSURE
         S - STEADY PRESSURE
VSB    - VISIBILITY IN MILES
HX     - HEAT INDEX IN FAHRENHEIT
WCI    - WIND CHILL INDEX IN FAHRENHEIT
TC     - TEMPERATURE IN CELSIUS WHICH IS ALSO KNOWN AS
         TEMPERATURE IN CENTIGRADE
AFB    - AIR FORCE BASE
         LUKE AFB IS LUKE AIR FORCE BASE
         DAVIS-MONTHAN IS DAVIS-MONTHAN AIR FORCE BASE
NAS    - NAVAL AIR STATION
         EL CENTRO NAS IS EL CENTRO NAVAL AIR STATION
N/A    - NOT AVAILABLE





USA.gov is the U.S. government's official web portal to all federal, state and local government web resources and services.